ATLAS 5 CENTAUR DEB, 43984

Orbit data source: Space-Track

ATLAS 5 CENTAUR DEB, 43984 is space debris in HEO originally from a launch on Wed, 17 Sep 2014 UTC launched from the Air Force Eastern Test Range (AFETR). Debris objects in space refer to the collection of defunct objects orbiting the Earth. Examples of debris include non-operational satellites, rocket bodies, and fragments generated from explosions, collisions, or faulty payload assembly.

Loading next visibility...
Identifier
43984, 2014-055AP
Orbit
HEO
Last TLE update
4 days ago
Origin
Flag of USUnited Launch Alliance/Lockheed Martin (US)
Manufacturer
Unknown
Mission
Spacecraft
Bus & Motor
Unknown
Mass
Unknown
Launch date (UTC)
2014-09-17 (11 years ago)
Launch vehicle
Unknown
Launch site
Air Force Eastern Test Range (AFETR)
Object type
Payload
Rocket body
Debris
Shape & HBR
Unknown
Radar Cross Section
Small (<0.1 m²)

Expand to show TLE details & history

TLE from 4 days ago
0 ATLAS 5 CENTAUR DEB
1 43984U 14055AP  25183.64384567 -.00000143  00000-0  00000+0 0  9993
2 43984  20.6962 130.3748 5107673 186.6828 162.3728  1.91692702 47703
Epoch: 2025-07-02T15:27Z
TLE epoch observation values (Epoch: 2025-07-02T15:27:08.265Z)
Latitude
-0.00001°
Longitude
-22.36445°
Altitude
34,698.04 km
Speed
2.202 km/s
True Right ascension
08h 41m 22s
True Declination
0° 00' 00"
Sunlit
Object was in daylight at epoch
Visualization orbit readout
Latitude
13.00063°
Longitude
14.77965°
Altitude
29,301.365 km
Speed
2.79 km/s
Apparent Right ascension
11h 12m 29s
Apparent Declination
7° 31' 25"
Sunlit
Object is in daylight
Visualization observer readout
Local Sidereal Time
10:54:21
Azimuth
171.643° S
Elevation
57.354°
Doppler factor
1
Orbital elements
Apogee altitude
34,980.093 km
Perigee altitude
7,014.924 km
Semi-major axis
27,375.645 km
Eccentricity
0.51077
Inclination
20.6962°
RAAN
130.3748°
Arg. of periapsis
186.6828°
True anomaly
Unknown
Mean anomaly
162.3728°
Eccentric anomaly
Unknown
Mean motion
0.47918 °/min
Orbital period
751.29 mins
BSTAR
0
Loading maneuver chart data...
Loading SW <> Apogee altitude chart data...
Loading historical data...
Loading historical data...
Loading historical data...
Loading historical data...
Loading historical data...
Loading historical data...
Loading historical data...

ATLAS 5 CENTAUR DEB Visibility forecast

Observer location: undefined°, undefined°

Span
Click to sort rows by Start time (UTC) header in descending order
Start Az.
Max El. time (UTC)
Max El. Az.
Max El.
End time (UTC)
End Az.
180 mins2025-07-06 22:54:08.644Z171.648° S2025-07-07 00:13:08.644Z159.75° S41.222°2025-07-07 01:54:08.644Z100.097° ESE
400 mins2025-07-07 16:14:08.644Z195.01° SSW2025-07-07 22:54:08.644Z199.23° SSW38.221°2025-07-07 22:54:08.644Z199.23° SSW
|